Location: *
(34.0486°S, 61.7880°E)
Time: 16:44:18
(UTC+00:00)

BREEZE-M DEB (TANK) - Pass Details

Date: 01 April 2020
Orbit: 306 x 16427 km, 49.4° (Epoch: 27 May)

Event Time Altitude Azimuth Distance (km) Brightness Sun altitude
Rises 14:34:26 0° 330° (NNW) 5,542 7.8 -10.6°
Reaches altitude 10° 14:39:59 10° 341° (NNW) 3,017 6.3 -11.7°
Maximum altitude 14:44:38 24° 33° (NNE) 1,218 3.7 -12.7°
Enters shadow 14:45:47 20° 65° (ENE) 1,177 3.4 -12.9°
